Tracking 22458 objects as of 2-Mar-2021
HD Live streaming from Space Station
objects crossing your sky now

JCSAT 18

Track JCSAT 18 now!


NORAD ID: 44868
Int'l Code: 2019-091A
Perigee: 35,790.6 km
Apogee: 35,798.1 km
Inclination: 0.0 °
Period: 1,436.1 minutes
Semi major axis: 42165 km
RCS: Unknown
Launch date: December 17, 2019
Source: Japan (JPN)
Launch site: AIR FORCE EASTERN TEST RANGE (AFETR)
aabbcc
Your satellite tracking list
Your tracking list is empty




NASA's NSSDC Master Catalog

Two Line Element Set (TLE):
1 44868U 19091A   21060.68452387 -.00000209  00000-0  00000-0 0  9994
2 44868   0.0174 166.0019 0000887 213.9383 176.1407  1.00269766  4635
Source of the keplerian elements: AFSPC